Flag for Brazil Weather past 2 weeks in Rio de Janeiro, Rio de Janeiro, Brazil

Now
81 °F

Sunny.


Feels Like: 85 °F
Forecast: 72 / 86 °F
Wind: 10 mph from South

Location: Rio De Janeiro Airport

Current Time: Apr 18, 2015 at 2:13:37 PM

Latest Report: Apr 18, 2015 at 1:00 PM


Visibility: 10 mi

Pressure: 29.89 "Hg

Humidity: 74%

Dew point: 72 °F

Location of Rio de JaneiroLocation

Historic Weather in Rio de Janeiro — Graph

°F

Rio de Janeiro temperature yesterday

Maximum temperature yesterday: 86 °F (at 1:00 PM)
Minimum temperature yesterday: 75 °F (at 6:00 AM)
Average temperature yesterday: 79 °F

Past Weeks' High & Low Weather Summary

 TemperatureHumidityPressure
High91 °F (Apr 6, 11:00 AM)94% (Apr 7, 6:00 AM)30.12 "Hg (Apr 7, 6:00 AM)
Low68 °F (Apr 8, 6:00 AM)49% (Apr 6, 11:00 AM)29.65 "Hg (Apr 6, 6:00 AM)
Average78 °F75%29.97 "Hg
* Reported Apr 3 12:00 Noon — Apr 18 12:00 Noon, Rio de Janeiro, Weather by CustomWeather, © 2015

Note: Actual official high and low records may vary slightly from our data, if they occured in-between our weather recording intervals... More about our weather records

Advertising

Rio de Janeiro weather history for previous 24 hours

 ConditionsComfort  
Time TempWeatherWind HumidityBarometerVisibility
12:00 PM
Sat, Apr 18
81 °FSunny.8 mph74%29.92 "Hg10 mi
11:00 AM81 °FPassing clouds.2 mph74%29.95 "HgN/A
10:00 AM79 °FPassing clouds.5 mph79%29.98 "HgN/A
9:00 AM79 °FSunny.6 mph84%29.98 "Hg10 mi
8:00 AM77 °FPassing clouds.2 mph83%29.98 "Hg6 mi
7:00 AM73 °FScattered clouds.2 mph94%29.98 "Hg6 mi
6:00 AM73 °FScattered clouds.No wind94%29.95 "Hg6 mi
11:00 PM
Fri, Apr 17
77 °FPassing clouds.2 mph83%30.01 "HgN/A
10:00 PM77 °FPassing clouds.No wind83%30.01 "HgN/A
9:00 PM75 °FPassing clouds.3 mph94%30.01 "HgN/A
8:00 PM75 °FPassing clouds.8 mph94%30.01 "HgN/A
7:00 PM75 °FPassing clouds.9 mph94%30.01 "HgN/A
6:00 PM77 °FPassing clouds.10 mph89%29.98 "HgN/A
5:00 PM77 °FPassing clouds.12 mph83%29.98 "HgN/A
4:00 PM81 °FScattered clouds.12 mph74%29.98 "HgN/A
3:00 PM82 °FPassing clouds.14 mph74%29.95 "HgN/A
2:00 PM82 °FPassing clouds.13 mph74%29.98 "HgN/A
Weather by CustomWeather, © 2015

See weather overviewHow to use our weather pages